Location: Newark
(35.6799°N, 139.7636°E)
Time: 01:09:13
(UTC+00:00)

Transit 2A - Pass Details

Date: 13 December 2019
Orbit: 601 x 957 km, 66.7° (Epoch: 19 January)

Event Time Altitude Azimuth Distance (km) Brightness Sun altitude
Rises 05:30:11 0° 343° (NNW) 2,882 8.7 18.0°
Reaches altitude 10° 05:32:34 10° 353° (N) 2,000 7.9 17.7°
Maximum altitude 05:36:39 33° 58° (ENE) 1,087 6.5 17.2°
Drops below altitude 10° 05:40:59 10° 123° (ESE) 2,136 8.3 16.6°
Sets 05:43:36 0° 132° (SE) 3,109 9.1 16.2°
